Regional Weather Roundup
Issued by NWS

Home | Current Version | Previous Version | Text Only | Print | Product List | Glossary Off
Versions: 1 2 3 4 5 6 7 8 9 10 11 12 13 14 15 16 17 18 19 20 21 22 23 24 25 26 27 28 29 30 31 32 33 34 35 36 37 38 39 40 41 42 43 44 45 46 47 48 49 50

557
ASUS43 KDMX 301208
RWRIA

WEATHER ROUNDUP FOR IOWA
NATIONAL WEATHER SERVICE DES MOINES IA
700 AM CDT SAT APR 30 2016

NOTE: "FAIR" INDICATES FEW OR NO CLOUDS BELOW 12,000 FEET WITH NO
SIGNIFICANT WEATHER AND/OR OBSTRUCTIONS TO VISIBILITY.

* - THESE STATIONS ARE NOT NWS STATIONS...THUS NOT UNDER NWS
QUALITY CONTROL.  THEY ALSO DO NOT REPORT WEATHER SUCH
AS PRECIPITATION OR FOG.

IAZ001>003-012>014-020>022-031>034-043>046-301300-
   NORTHWEST IOWA

CITY           SKY/WX    TMP DP  RH WIND       PRES   REMARKS
CARROLL *      LGT RAIN  43  43 100 E24G33    29.80F
CHEROKEE *     LGT RAIN  43  42  96 NE13G20   29.87S
DENISON *      LGT RAIN  43  41  93 E25G33    29.75F
LE MARS *      LGT RAIN  45  41  87 NE15G30   29.87F
ORANGE CITY *  DRIZZLE   43  39  87 E17G25    29.87R
SHELDON *      CLOUDY    45  41  87 E22G29    29.88S
SIOUX CITY     RAIN      45  41  86 E17G26    29.81F FOG
6HR MIN TEMP:  45; 6HR MAX TEMP:  47; 6HR PCP:  0.33;

SPENCER        LGT RAIN  44  38  79 NE22G30   29.90F
6HR MIN TEMP:  44; 6HR MAX TEMP:  46; 6HR PCP: TRACE;

STORM LAKE *   MOCLDY    43  41  93 E23G33    29.87S FOG
$$

IAZ055>058-069>071-079>083-090>094-301300-
   SOUTHWEST IOWA

CITY           SKY/WX    TMP DP  RH WIND       PRES   REMARKS
ATLANTIC *     RAIN      45  43  93 E17G28    29.74F
AUDUBON *      RAIN      43  41  93 E15G25    29.77F
CLARINDA *       N/A    N/A N/A N/A MISG        N/A
COUNCIL BLFS * RAIN      45  45 100 E21       29.72S
CRESTON *      CLOUDY    45  45 100 E24G32    29.75R FOG
HARLAN  *      RAIN      43  43 100 E18G28    29.78R
LAMONI         LGT RAIN  46  45  96 E10       29.75R FOG
6HR MIN TEMP:  46; 6HR MAX TEMP:  46; 6HR PCP:  0.14;

RED OAK *      RAIN      46  45  93 E20G25    29.70F
SHENANDOAH *   LGT RAIN  46  46 100 E15G22    29.70S
$$

IAZ047>049-059>061-072>074-084-301300-
   CENTRAL IOWA

CITY           SKY/WX    TMP DP  RH WIND       PRES   REMARKS
AMES           LGT RAIN  44  42  93 E16G29    29.84F FOG
6HR MIN TEMP:  44; 6HR MAX TEMP:  46; 6HR PCP:  0.04;

ANKENY *       RAIN      45  45 100 E15G22    29.83S
BOONE *        CLOUDY    43  43 100 E28G33    29.82F FOG
CHARITON *     CLOUDY    46  46 100 E14G21    29.78R FOG
DES MOINES     LGT RAIN  46  42  86 E20G28    29.80F FOG
6HR MIN TEMP:  45; 6HR MAX TEMP:  48; 6HR PCP:  0.19;

GRINNELL*      RAIN      43  41  93 E18G28    29.86S
KNOXVILLE *    CLOUDY    45  45 100 E20       29.80S FOG
MARSHALLTOWN   CLOUDY    44  40  85 E18G28    29.88F
6HR MIN TEMP:  44; 6HR MAX TEMP:  46; 6HR PCP: TRACE;

NEWTON *       FOG       45  45 100 E21G28    29.83F VSB 1
PELLA *        DRIZZLE   45  44  97 E13G24    29.82F
$$

IAZ004>006-015-016-023>025-035-036-301300-
   NORTH CENTRAL IOWA

CITY           SKY/WX    TMP DP  RH WIND       PRES   REMARKS
ALGONA *       CLOUDY    45  41  87 E16G22    29.93R
CLARION *      CLOUDY    43  41  93 E22G29    29.91R
ESTHERVILLE    CLOUDY    43  39  86 NE20      29.92F
6HR MIN TEMP:  41; 6HR MAX TEMP:  43;

FORT DODGE *   CLOUDY    43  37  81 E18G25    29.88F
MASON CITY     CLOUDY    43  39  86 E20       29.96F
6HR MIN TEMP:  43; 6HR MAX TEMP:  46; 6HR PCP: TRACE;

FOREST CITY *  CLOUDY    43  37  81 E15G23    29.94S
WEBSTER CITY * LGT RAIN  43  43 100 E22G32    29.86F
IOWA FALLS *   CLOUDY    45  41  87 E17       29.92S
$$

IAZ007>011-017>019-026>030-037>042-050>054-066-301300-
   NORTHEAST IOWA

CITY           SKY/WX    TMP DP  RH WIND       PRES   REMARKS
CEDAR RAPIDS   CLOUDY    44  43  96 E22G28    29.89F FOG
6HR MIN TEMP:  44; 6HR MAX TEMP:  45; 6HR PCP:  0.01;

CHARLES CITY * CLOUDY    43  43 100 E18       29.97F
CLINTON *      LGT RAIN  45  42  89 E16       29.97F
DECORAH *      CLOUDY    43  41  93 E9G15     30.00F
DUBUQUE        CLOUDY    44  40  85 E12       29.99F
6HR MIN TEMP:  42; 6HR MAX TEMP:  44;

MONTICELLO *   LGT RAIN  45  41  87 E14G22    29.96F
OELWEIN *      CLOUDY    43  43 100 E17G23    29.95F
WATERLOO       LGT RAIN  44  40  85 E16G25    29.94S
6HR MIN TEMP:  43; 6HR MAX TEMP:  45; 6HR PCP: TRACE;

$$

IAZ064-065-067-068-078-301300-
   EAST CENTRAL IOWA

CITY           SKY/WX    TMP DP  RH WIND       PRES   REMARKS
DAVENPORT      LGT RAIN  45  42  89 E16       29.96F FOG
6HR MIN TEMP:  44; 6HR MAX TEMP:  46; 6HR PCP:  0.01;

IOWA CITY      CLOUDY    45  43  93 E13G30    29.90F FOG
6HR MIN TEMP:  44; 6HR MAX TEMP:  47; 6HR PCP:  0.05;

MT. PLEASANT * LGT RAIN  48  48 100 E21       29.85F
MUSCATINE *    LGT RAIN  46  45  93 E16G25    29.91F
QUAD CITIES    CLOUDY    46  42  86 E14       29.94F FOG
6HR MIN TEMP:  46; 6HR MAX TEMP:  48; 6HR PCP: TRACE;

$$

IAZ062-063-075>077-085>089-095>099-301300-
   SOUTHEAST IOWA

CITY           SKY/WX    TMP DP  RH WIND       PRES   REMARKS
BURLINGTON     CLOUDY    47  47 100 E15G23    29.86F FOG
6HR MIN TEMP:  46; 6HR MAX TEMP:  48; 6HR PCP:  0.17;

FAIRFIELD *    CLOUDY    45  45 100 E24G32    29.81F FOG
FORT MADISON * CLOUDY    46  46 100 E17G24    29.83F FOG
KEOKUK *       CLOUDY    48  48 100 E17       29.80F FOG
OSKALOOSA *    CLOUDY    45  44  96 E22G30    29.82S FOG
OTTUMWA        CLOUDY    45  44  97 E21G31    29.81F FOG
6HR MIN TEMP:  45; 6HR MAX TEMP:  46; 6HR PCP:  0.09;

WASHINGTON *   LGT RAIN  45  45 100 E24       29.87F
$$

ABBREVIATIONS USED IN REMARKS
   TC - TEMPERATURES IN CELSIUS
  WCI - WIND CHILL INDEX
   HX - HEAT INDEX
  VSB - VISIBILITY
$$





USA.gov is the U.S. government's official web portal to all federal, state and local government web resources and services.